Location: Newark
(47.5989°N, 4.6950°E)
Time: 01:24:46
(UTC+00:00)

Envisat - Pass Details

Date: 19 November 2019
Orbit: 764 x 766 km, 98.1° (Epoch: 05 December)

Event Time Altitude Azimuth Distance (km) Brightness Sun altitude
Rises 17:16:01 0° 156° (SSE) 3,220 6.1 -12.5°
Reaches altitude 10° 17:18:19 10° 154° (SSE) 2,298 5.4 -12.9°
Maximum altitude 17:23:21 67° 73° (ENE) 829 2.9 -13.7°
Drops below altitude 10° 17:28:24 10° 351° (N) 2,314 5.4 -14.6°
Sets 17:30:44 0° 349° (N) 3,244 6.2 -15.0°
